TimeGMT,TemperatureF,Dew PointF,Humidity,Sea Level PressureIn,VisibilityMPH,Wind Direction,Wind SpeedMPH,Gust SpeedMPH,PrecipitationIn,Events,Conditions,WindDirDegrees,DateUTC
12:20 AM,32.0,24.8,75,29.89,6.2,NNE,6.9,-,N/A,,Partly Cloudy,20,2013-03-28 00:20:00
12:50 AM,32.0,24.8,75,29.89,-9999.0,NNE,5.8,-,N/A,,Clear,20,2013-03-28 00:50:00
1:20 AM,32.0,26.6,80,29.86,6.2,NNE,4.6,-,N/A,,Partly Cloudy,20,2013-03-28 01:20:00
1:50 AM,30.2,26.6,86,29.86,6.2,NNE,4.6,-,N/A,,Partly Cloudy,20,2013-03-28 01:50:00
2:20 AM,30.2,26.6,86,29.86,6.2,NNE,4.6,-,N/A,,Scattered Clouds,20,2013-03-28 02:20:00
2:50 AM,31,26,76,29.87,6,NNE,4.6,,,,Light Haze,20,2013-03-28 02:50:00
2:50 AM,30.2,26.6,86,29.86,-9999.0,NNE,4.6,-,N/A,,Clear,20,2013-03-28 02:50:00
3:20 AM,30.2,26.6,86,29.86,6.2,Variable,3.5,-,N/A,,Partly Cloudy,0,2013-03-28 03:20:00
3:50 AM,30.2,26.6,86,29.86,5.0,Variable,2.3,-,N/A,,Partly Cloudy,0,2013-03-28 03:50:00
4:20 AM,30.2,26.6,86,29.86,5.0,North,3.5,-,N/A,,Unknown,360,2013-03-28 04:20:00
4:50 AM,30.2,26.6,86,29.86,5.0,North,3.5,-,N/A,,Partly Cloudy,360,2013-03-28 04:50:00
5:20 AM,30.2,26.6,86,29.86,5.0,Variable,3.5,-,N/A,,Unknown,0,2013-03-28 05:20:00
5:50 AM,29,26,86,29.87,4,NNE,3.5,,,,Light Haze,20,2013-03-28 05:50:00
5:50 AM,28.4,26.6,93,29.86,5.0,Variable,3.5,-,N/A,,Unknown,0,2013-03-28 05:50:00
6:20 AM,30.2,26.6,86,29.86,5.0,NNE,4.6,-,N/A,,Unknown,20,2013-03-28 06:20:00
6:50 AM,30.2,26.6,86,29.86,4.3,North,4.6,-,N/A,,Unknown,10,2013-03-28 06:50:00
7:20 AM,32.0,28.4,87,29.86,5.0,NNE,5.8,-,N/A,,Unknown,20,2013-03-28 07:20:00
7:50 AM,33.8,28.4,81,29.86,5.6,NE,5.8,-,N/A,,Unknown,50,2013-03-28 07:50:00
8:20 AM,35.6,28.4,75,29.86,-9999.0,NE,5.8,-,N/A,,Clear,50,2013-03-28 08:20:00
8:50 AM,38,28,57,29.88,8,NE,9.2,,,,Scattered Clouds,40,2013-03-28 08:50:00
8:50 AM,37.4,28.4,70,29.86,-9999.0,NE,8.1,-,N/A,,Clear,50,2013-03-28 08:50:00
9:20 AM,39.2,28.4,65,29.89,6.2,ENE,11.5,-,N/A,,Partly Cloudy,60,2013-03-28 09:20:00
9:50 AM,41.0,28.4,61,29.89,6.2,NE,10.4,-,N/A,,Scattered Clouds,50,2013-03-28 09:50:00
10:20 AM,37.4,24.8,60,29.89,6.2,ENE,12.7,-,N/A,,Scattered Clouds,70,2013-03-28 10:20:00
10:50 AM,39.2,26.6,61,29.89,6.2,ENE,11.5,-,N/A,,Mostly Cloudy,60,2013-03-28 10:50:00
11:20 AM,39.2,26.6,61,29.89,6.2,ENE,10.4,-,N/A,,Mostly Cloudy,70,2013-03-28 11:20:00
11:50 AM,39,26,47,29.90,7,NE,12.7,,,,Partly Cloudy,50,2013-03-28 11:50:00
11:50 AM,39.2,24.8,56,29.89,6.2,NE,10.4,-,N/A,,Mostly Cloudy,50,2013-03-28 11:50:00
12:20 PM,37.4,26.6,65,29.89,6.2,ENE,11.5,-,N/A,,Mostly Cloudy,60,2013-03-28 12:20:00
12:50 PM,37.4,26.6,65,29.89,6.2,ENE,11.5,-,N/A,,Mostly Cloudy,60,2013-03-28 12:50:00
1:20 PM,37.4,23.0,56,29.89,6.2,NE,8.1,-,N/A,,Mostly Cloudy,40,2013-03-28 13:20:00
1:50 PM,39.2,24.8,56,29.92,6.2,NE,8.1,-,N/A,,Mostly Cloudy,50,2013-03-28 13:50:00
2:20 PM,39.2,24.8,56,29.89,6.2,NE,9.2,-,N/A,,Mostly Cloudy,40,2013-03-28 14:20:00
2:50 PM,39,24,41,29.91,11,NE,8.1,,,,Overcast,40,2013-03-28 14:50:00
2:50 PM,39.2,23.0,52,29.89,6.2,NE,9.2,-,N/A,,Mostly Cloudy,50,2013-03-28 14:50:00
3:20 PM,39.2,21.2,49,29.89,6.2,NE,10.4,-,N/A,,Mostly Cloudy,50,2013-03-28 15:20:00
3:50 PM,39.2,21.2,49,29.92,6.2,NE,8.1,-,N/A,,Mostly Cloudy,40,2013-03-28 15:50:00
4:20 PM,39.2,21.2,49,29.92,6.2,NNE,8.1,-,N/A,,Mostly Cloudy,30,2013-03-28 16:20:00
4:50 PM,39.2,21.2,49,29.92,6.2,NNE,8.1,-,N/A,,Mostly Cloudy,30,2013-03-28 16:50:00
5:20 PM,39.2,21.2,49,29.92,6.2,NE,9.2,-,N/A,,Mostly Cloudy,40,2013-03-28 17:20:00
5:50 PM,39,22,37,29.93,13,NNE,10.4,,,,Overcast,30,2013-03-28 17:50:00
5:50 PM,39.2,21.2,49,29.92,6.2,NE,8.1,-,N/A,,Mostly Cloudy,40,2013-03-28 17:50:00
6:20 PM,37.4,19.4,48,29.92,6.2,ENE,8.1,-,N/A,,Mostly Cloudy,60,2013-03-28 18:20:00
6:50 PM,37.4,19.4,48,29.92,6.2,NE,8.1,-,N/A,,Mostly Cloudy,50,2013-03-28 18:50:00
7:20 PM,37.4,19.4,48,29.95,6.2,NE,8.1,-,N/A,,Mostly Cloudy,50,2013-03-28 19:20:00
7:50 PM,37.4,19.4,48,29.95,6.2,NE,6.9,-,N/A,,Mostly Cloudy,50,2013-03-28 19:50:00
8:20 PM,37.4,19.4,48,29.95,6.2,NE,8.1,-,N/A,,Mostly Cloudy,50,2013-03-28 20:20:00
8:50 PM,37,22,41,29.96,14,NE,8.1,,,,Overcast,40,2013-03-28 20:50:00
8:50 PM,37.4,21.2,52,29.95,6.2,NE,8.1,-,N/A,,Mostly Cloudy,50,2013-03-28 20:50:00
9:20 PM,35.6,23.0,60,29.95,6.2,NE,6.9,-,N/A,,Mostly Cloudy,40,2013-03-28 21:20:00
9:50 PM,35.6,23.0,60,29.95,6.2,NE,8.1,-,N/A,,Mostly Cloudy,40,2013-03-28 21:50:00
10:20 PM,35.6,19.4,52,29.95,6.2,NE,6.9,-,N/A,,Mostly Cloudy,40,2013-03-28 22:20:00
10:50 PM,35.6,19.4,52,29.95,6.2,NE,6.9,-,N/A,,Mostly Cloudy,40,2013-03-28 22:50:00
11:20 PM,33.8,21.2,60,29.95,6.2,NE,4.6,-,N/A,,Mostly Cloudy,40,2013-03-28 23:20:00
11:50 PM,33,23,57,29.94,12,NNE,4.6,,,,Mostly Cloudy,20,2013-03-28 23:50:00
11:50 PM,33.8,23.0,65,29.95,6.2,NE,4.6,-,N/A,,Mostly Cloudy,50,2013-03-28 23:50:00